Last 24 Hours

Squaw-Siberia 8700'

Hourly Data | America/Los_Angeles
as of 7/18/19 11:17 PM PDT
Date & Time Temp (°F) RH (%) Dew Pt (°F) Wet Bulb (°F) Wind Dir (°) Wind Spd (mph) Wind Gust (mph) WindChill (°F) Daily Min Temp (°F) Daily Max Temp (°F)
7/18/19 - 2300 52.9 63 40.6 46.0 SW | 227 27.1 36.4 47.4 49.5 64.0
7/18/19 - 2200 53.9 58 39.4 45.9 SW | 217 23.4 36.6 45.3 49.5 64.0
7/18/19 - 2100 51.9 80 46.1 48.5 WSW | 257 18.0 22.5 49.7 49.5 64.0
7/18/19 - 2000 55.3 70 45.7 49.6 WSW | 246 22.2 34.0 57.2 49.5 64.0
7/18/19 - 1900 58.6 58 44.0 50.0 WSW | 247 30.5 40.1 59.7 49.5 64.0
7/18/19 - 1800 59.6 53 42.6 49.7 WSW | 251 27.8 39.8 61.4 49.5 64.0
7/18/19 - 1700 61.0 48 41.3 49.7 WSW | 247 30.2 40.6 62.2 49.5 64.0
7/18/19 - 1600 62.6 44 40.5 50.0 WSW | 251 29.3 42.2 62.5 49.5 64.0
7/18/19 - 1500 62.7 41 38.5 49.1 WSW | 253 26.8 36.9 62.0 49.5 63.2
7/18/19 - 1400 62.0 41 38.3 48.7 WSW | 247 24.2 32.6 61.2 49.5 62.6
7/18/19 - 1300 58.9 40 34.8 46.0 WSW | 257 20.8 31.5 60.0 49.5 62.0
7/18/19 - 1200 57.7 43 35.6 45.8 WSW | 246 21.9 31.7 57.3 49.5 59.4
7/18/19 - 1100 55.9 49 37.2 45.8 WSW | 239 24.1 35.1 53.2 49.5 56.9
7/18/19 - 1000 55.0 48 35.4 44.6 SW | 228 26.1 34.7 47.4 49.5 55.0
7/18/19 - 0900 52.8 60 39.3 45.4 SW | 230 25.6 34.6 45.5 49.5 53.8
7/18/19 - 0800 51.3 64 39.4 44.8 SW | 223 26.3 34.7 44.0 49.5 53.8
7/18/19 - 0700 50.6 67 40.1 44.8 SW | 232 24.6 33.2 43.3 49.5 53.8
7/18/19 - 0600 49.8 76 42.7 45.8 SW | 229 23.0 27.9 43.4 49.6 53.8
7/18/19 - 0500 50.6 76 43.5 46.5 SW | 227 22.2 29.6 44.3 50.3 53.8
7/18/19 - 0400 51.0 75 43.4 46.7 SW | 225 23.5 29.2 44.9 50.7 53.8
7/18/19 - 0300 52.0 68 41.9 46.3 SW | 226 24.3 30.6 45.8 51.6 53.8
7/18/19 - 0200 52.8 64 41.0 46.2 SW | 225 25.8 31.2 46.5 52.4 53.8
7/18/19 - 0100 53.2 58 38.9 45.4 SW | 222 25.3 31.6 47.2 53.0 53.8
7/18/19 - 0000 53.6 56 38.5 45.4 SW | 225 25.7 31.7 48.0 51.0 65.9
7/17/19 - 2300 54.1 56 38.8 45.7 SW | 229 24.3 31.2 48.5 51.0 65.9
Max 62.7 80 46.1 50.0 - 30.5 42.2 62.5 53.0 65.9
Avg 55.2 58 40.3 46.9 - 24.9 33.6 51.5 - -
Min 49.8 40 34.8 44.6 - 18.0 22.5 43.3 49.5 53.8